Weather History for KIKW - May, 2013

Change the Weather History Date:

Thursday, May 2, 2013

  Actual Average (KMBS) Record (KMBS)
Temperature  
Mean Temperature 68 °F 52 °F  
Max Temperature 80 °F 63 °F - ()
Min Temperature 56 °F 42 °F - ()
Degree Days  
Heating Degree Days 0    
Month to date heating degree days  
Since 1 July heating degree days  
Cooling Degree Days 3    
Month to date cooling degree days  
Year to date cooling degree days  
Growing Degree Days 18 (Base 50)    
Moisture  
Dew Point 53 °F    
Average Humidity 55    
Maximum Humidity 85    
Minimum Humidity 38    
Precipitation  
Precipitation 0.00 in 0.11 in - ()
Month to date precipitation 0.21  
Year to date precipitation 8.48  
Snow  
Snow 0.00 in - - ()
Month to date snowfall  
Since 1 July snowfall  
Snow Depth -    
Sea Level Pressure  
Sea Level Pressure 30.18 in    
Wind  
Wind Speed 6 mph (ESE)    
Max Wind Speed 15 mph    
Max Gust Speed 21 mph    
Visibility 10 miles    
Events      
T = Trace of Precipitation, MM = Missing Value Source: NWS Daily Summary

Daily Weather History Graph

Daily Weather History Graph

Search for Another Location

Airport or City:

Trip Planner

Search our weather history database for the weather conditions in past years. The results will help you decide how hot, cold, wet, or windy it might be!

Date:

Astronomy

May. 02, 2013 Rise Set
Actual Time 6:27 AM EDT 8:41 PM EDT
Civil Twilight 5:56 AM EDT 9:12 PM EDT
Nautical Twilight 5:17 AM EDT 9:51 PM EDT
Astronomical Twilight 4:33 AM EDT 10:35 PM EDT
Moon 2:28 AM EDT (5/2) 1:16 PM EDT (5/2)
Length of Visible Light 15h 16m
Length of Day
14h 13m
Waning Gibbous, 48% of the Moon is Illuminated
May 2
Waning Gibbous
May 9
New
May 18
First Quarter
May 25
Full
May 31
Last Quarter

Hourly Weather History & Observations

Time (EDT) Temp. Heat Index Dew Point Humidity Pressure Visibility Wind Dir Wind Speed Gust Speed Precip Events Conditions
12:13 AM 70.2 °F - 53.2 °F 55% 30.21 in 10.0 mi SSE 4.6 mph - N/A   Clear
12:34 AM 69.8 °F - 53.2 °F 56% 30.21 in 10.0 mi SSE 4.6 mph - N/A   Clear
12:53 AM 69.1 °F - 53.1 °F 57% 30.21 in 10.0 mi Calm Calm - N/A   Clear
1:13 AM 66.0 °F - 53.6 °F 64% 30.21 in 10.0 mi SE 4.6 mph - N/A   Clear
1:34 AM 67.5 °F - 54.1 °F 62% 30.21 in 10.0 mi SE 3.5 mph - N/A   Clear
1:53 AM 67.5 °F - 55.2 °F 65% 30.21 in 10.0 mi SSE 8.1 mph - N/A   Clear
2:13 AM 67.3 °F - 55.4 °F 66% 30.20 in 10.0 mi SSE 8.1 mph - N/A   Clear
2:34 AM 66.6 °F - 55.4 °F 67% 30.20 in 10.0 mi SSE 5.8 mph - N/A   Clear
2:53 AM 65.5 °F - 55.0 °F 69% 30.20 in 10.0 mi SSE 3.5 mph - N/A   Clear
3:13 AM 64.9 °F - 55.0 °F 70% 30.20 in 10.0 mi SSE 3.5 mph - N/A   Clear
3:34 AM 64.4 °F - 55.0 °F 72% 30.20 in 10.0 mi SSE 3.5 mph - N/A   Clear
3:53 AM 64.0 °F - 54.7 °F 72% 30.19 in 10.0 mi SSE 4.6 mph - N/A   Clear
4:13 AM 63.5 °F - 54.3 °F 72% 30.20 in 10.0 mi Calm Calm - N/A   Clear
4:34 AM 63.1 °F - 53.8 °F 71% 30.20 in 10.0 mi Calm Calm - N/A   Clear
4:53 AM 63.1 °F - 54.0 °F 72% 30.20 in 10.0 mi Calm Calm - N/A   Clear
5:13 AM 61.9 °F - 52.7 °F 72% 30.20 in 10.0 mi SE 4.6 mph - N/A   Clear
5:33 AM 62.1 °F - 52.2 °F 70% 30.20 in 10.0 mi SE 3.5 mph - N/A   Clear
5:53 AM 61.5 °F - 51.6 °F 70% 30.20 in 10.0 mi SE 3.5 mph - N/A   Clear
6:13 AM 58.5 °F - 51.8 °F 79% 30.20 in 10.0 mi ENE 3.5 mph - N/A   Clear
6:33 AM 58.5 °F - 51.8 °F 79% 30.21 in 10.0 mi ENE 4.6 mph - N/A   Clear
6:53 AM 57.9 °F - 52.0 °F 81% 30.21 in 10.0 mi ENE 3.5 mph - N/A   Clear
7:14 AM 56.7 °F - 52.2 °F 85% 30.22 in 10.0 mi Calm Calm - N/A   Clear
7:33 AM 58.6 °F - 53.4 °F 83% 30.22 in 10.0 mi Calm Calm - N/A   Clear
7:53 AM 61.5 °F - 53.1 °F 74% 30.23 in 10.0 mi ENE 4.6 mph - N/A   Clear
8:05 AM 63.1 °F - 53.4 °F 71% 30.24 in 10.0 mi ENE 5.8 mph - N/A   Clear
8:34 AM 64.8 °F - 52.5 °F 64% 30.24 in 10.0 mi East 3.5 mph - N/A   Clear
8:53 AM 66.4 °F - 52.9 °F 62% 30.24 in 10.0 mi East 5.8 mph - N/A   Clear
9:13 AM 66.6 °F - 52.7 °F 61% 30.24 in 10.0 mi East 8.1 mph - N/A   Clear
9:34 AM 67.6 °F - 54.1 °F 62% 30.24 in 10.0 mi East 5.8 mph - N/A   Clear
9:53 AM 68.2 °F - 54.7 °F 62% 30.24 in 10.0 mi East 4.6 mph - N/A   Clear
10:13 AM 68.4 °F - 54.3 °F 61% 30.24 in 10.0 mi ENE 4.6 mph - N/A   Clear
10:34 AM 69.3 °F - 54.3 °F 59% 30.24 in 10.0 mi ENE 6.9 mph - N/A   Clear
10:53 AM 70.0 °F - 54.1 °F 57% 30.24 in 10.0 mi ENE 4.6 mph - N/A   Clear
11:14 AM 70.9 °F - 53.4 °F 54% 30.24 in 10.0 mi East 3.5 mph - N/A   Clear
11:33 AM 72.1 °F - 53.2 °F 51% 30.22 in 10.0 mi East 4.6 mph - N/A   Clear
11:53 AM 73.6 °F - 52.7 °F 48% 30.22 in 10.0 mi NE 4.6 mph - N/A   Clear
12:14 PM 74.3 °F - 52.9 °F 47% 30.22 in 10.0 mi East 8.1 mph - N/A   Clear
12:33 PM 75.7 °F - 53.8 °F 46% 30.22 in 10.0 mi ENE 8.1 mph - N/A   Clear
12:53 PM 75.4 °F - 53.6 °F 47% 30.21 in 10.0 mi ENE 10.4 mph - N/A   Clear
1:14 PM 76.1 °F - 52.9 °F 44% 30.20 in 10.0 mi East 9.2 mph - N/A   Clear
1:33 PM 77.4 °F - 53.1 °F 43% 30.19 in 10.0 mi East 6.9 mph - N/A   Clear
1:53 PM 77.7 °F - 52.9 °F 42% 30.19 in 10.0 mi East 11.5 mph 16.1 mph N/A   Clear
2:13 PM 78.8 °F - 51.1 °F 38% 30.18 in 10.0 mi East 12.7 mph 17.3 mph N/A   Clear
2:33 PM 79.2 °F - 52.3 °F 39% 30.17 in 10.0 mi East 9.2 mph - N/A   Clear
2:54 PM 79.0 °F - 53.2 °F 41% 30.17 in 10.0 mi East 10.4 mph - N/A   Clear
3:13 PM 78.8 °F - 52.3 °F 40% 30.16 in 10.0 mi ENE 11.5 mph - N/A   Clear
3:34 PM 79.3 °F - 52.5 °F 39% 30.15 in 10.0 mi East 9.2 mph - N/A   Clear
3:53 PM 79.5 °F - 53.1 °F 40% 30.14 in 10.0 mi ENE 8.1 mph - N/A   Clear
4:14 PM 79.5 °F - 53.6 °F 41% 30.14 in 10.0 mi East 10.4 mph - N/A   Scattered Clouds
4:34 PM 80.6 °F - 52.7 °F 38% 30.13 in 10.0 mi SE 8.1 mph - N/A   Clear
4:53 PM 80.6 °F - 52.9 °F 38% 30.12 in 10.0 mi SSE 11.5 mph 17.3 mph N/A   Scattered Clouds
5:14 PM 79.9 °F - 54.3 °F 41% 30.12 in 10.0 mi East 8.1 mph - N/A   Mostly Cloudy
5:34 PM 79.5 °F - 52.9 °F 40% 30.11 in 10.0 mi SE 10.4 mph 16.1 mph N/A   Scattered Clouds
5:53 PM 79.0 °F - 52.7 °F 40% 30.11 in 10.0 mi SE 9.2 mph 17.3 mph N/A   Clear
6:14 PM 80.6 °F 80.3 °F 53.2 °F 39% 30.10 in 10.0 mi SSE 10.4 mph 16.1 mph N/A   Clear
6:33 PM 80.1 °F - 52.7 °F 39% 30.10 in 10.0 mi SE 9.2 mph 12.7 mph N/A   Clear
6:53 PM 78.8 °F - 53.6 °F 42% 30.10 in 10.0 mi SE 15.0 mph - N/A   Scattered Clouds
7:14 PM 78.1 °F - 53.1 °F 42% 30.09 in 10.0 mi SSE 10.4 mph 19.6 mph N/A   Clear
7:33 PM 77.4 °F - 52.3 °F 42% 30.09 in 10.0 mi SSE 12.7 mph 20.7 mph N/A   Clear
7:54 PM 77.2 °F - 52.9 °F 43% 30.09 in 10.0 mi SSE 8.1 mph - N/A   Clear
8:14 PM 75.9 °F - 51.8 °F 43% 30.10 in 10.0 mi SSE 9.2 mph - N/A   Clear
8:33 PM 75.4 °F - 51.1 °F 42% 30.10 in 10.0 mi SSE 10.4 mph - N/A   Clear
8:54 PM 73.8 °F - 50.7 °F 44% 30.11 in 10.0 mi SSE 8.1 mph - N/A   Clear
9:14 PM 73.4 °F - 50.9 °F 45% 30.11 in 10.0 mi SE 11.5 mph - N/A   Mostly Cloudy
9:33 PM 72.0 °F - 49.6 °F 45% 30.12 in 10.0 mi SE 10.4 mph - N/A   Scattered Clouds
9:54 PM 70.5 °F - 49.5 °F 47% 30.13 in 10.0 mi SE 8.1 mph - N/A   Clear
10:14 PM 69.4 °F - 48.9 °F 48% 30.13 in 10.0 mi SE 9.2 mph - N/A   Clear
10:33 PM 68.9 °F - 48.6 °F 48% 30.13 in 10.0 mi SE 9.2 mph - N/A   Clear
10:54 PM 68.4 °F - 48.6 °F 49% 30.13 in 10.0 mi SE 8.1 mph - N/A   Clear
11:14 PM 67.8 °F - 48.6 °F 50% 30.13 in 10.0 mi SE 8.1 mph - N/A   Clear
11:33 PM 67.1 °F - 48.7 °F 52% 30.13 in 10.0 mi SE 8.1 mph - N/A   Clear
11:54 PM 66.7 °F - 48.2 °F 51% 30.13 in 10.0 mi SE 6.9 mph - N/A   Clear